Regional Weather Roundup
Issued by NWS

Home | Current Version | Previous Version | Graphics & Text | Print | Product List | Glossary On
Versions: 1 2 3 4 5 6 7 8 9 10 11 12 13 14 15 16 17 18 19 20 21 22 23 24 25 26 27 28 29 30 31 32 33 34 35 36 37 38 39 40 41 42 43 44 45 46 47 48 49 50
000
ASUS43 KLOT 221810
RWRIL

ILLINOIS REGIONAL WEATHER ROUNDUP
NATIONAL WEATHER SERVICE CHICAGO/ROMEOVILLE IL
100 PM CDT FRI AUG 22 2014

NOTE: "FAIR" INDICATES FEW OR NO CLOUDS BELOW 12,000 FEET WITH NO
SIGNIFICANT WEATHER AND/OR OBSTRUCTIONS TO VISIBILITY.

* THESE STATIONS ARE NOT UNDER NWS QUALITY CONTROL. THEY ALSO MAY NOT
  REPORT WEATHER SUCH AS PRECIPITATION OR FOG.

ILZ001-002-007-009-015-016-024-221900-
NORTHWEST ILLINOIS

CITY           SKY/WX    TMP DP  RH WIND       PRES   REMARKS
MOLINE         CLOUDY    79  74  84 SW12      29.94F HX  82
6HR MIN TEMP:  71; 6HR MAX TEMP:  79; 6HR PCP:  0.44;

STERLING*      CLOUDY    75  72  88 W8        29.96F
SAVANNA*       CLOUDY    81  70  70 W3        29.94S HX  84
$$

ILZ003-004-008-010-011-017-018-221900-
NORTH CENTRAL ILLINOIS

CITY           SKY/WX    TMP DP  RH WIND       PRES   REMARKS
ROCKFORD       CLOUDY    78  71  79 S9        29.96F HX  80
6HR MIN TEMP:  73; 6HR MAX TEMP:  80;

FREEPORT*      CLOUDY    78  73  84 W8        29.97F HX  80
ROCHELLE*      CLOUDY    78  70  77 W15G22    29.96F HX  80
DE KALB*       CLOUDY    77  70  77 W13       29.97F
PERU*          CLOUDY    76  73  89 W10       29.96F
$$

ILZ005-006-012>014-019>023-221900-
NORTHEAST ILLINOIS

CITY           SKY/WX    TMP DP  RH WIND       PRES   REMARKS
CHICAGO-OHARE  CLOUDY    81  73  76 W5        29.94F HX  86
6HR MIN TEMP:  74; 6HR MAX TEMP:  81;

CHICAGO-MIDWAY CLOUDY    82  73  74 W9        29.95F HX  87
6HR MIN TEMP:  75; 6HR MAX TEMP:  83;

AURORA         CLOUDY    80  69  69 W13G21    29.95F HX  83
6HR MIN TEMP:  75; 6HR MAX TEMP:  80;

LANSING*       CLOUDY    81  73  76 W8        29.96F HX  85
JOLIET*        CLOUDY    80  69  70 SW5       29.96F HX  83
WAUKEGAN       CLOUDY    77  72  84 E6        29.95F
6HR MIN TEMP:  71; 6HR MAX TEMP:  77;

DUPAGE AIRPORT CLOUDY    83  69  62 SW14      29.95F HX  86
6HR MIN TEMP:  74; 6HR MAX TEMP:  83;

KANKAKEE*      CLOUDY    78  73  85 W6        29.99R
WHEELING       CLOUDY    84  74  71 N5        29.95F HX  91
6HR MIN TEMP:  74; 6HR MAX TEMP:  84;

MORRIS*        CLOUDY    79  72  79 SW6       29.96S HX  82
ROMEOVILLE*    CLOUDY    80  69  70 W5        29.96F HX  83
NORTHERLY ISL    N/A     81  71  71 NW5         N/A  HX  85
$$

LMZ740>746-221900-
SOUTHERN LAKE MICHIGAN

STATION/POSITION SKY/WX   TEMP    WIND        PRES    VSBY  WAVE
                          AIR SEA DIR/SP/G                  HT/PER
                          (F)     (DEG/KT/KT) (MB)    (MI)  (FT/S)
SOUTHERN BUOY              71 71  170/  2/  4 1014.7R         0
WAUKEGAN HARBOR            73        CALM       N/A
HARRISON CRIB              79     250/  9/ 12   N/A
BURNHAM HARBOR             81     260/ 10/ 11   N/A
CALUMET HARBOR             82     310/  3/  8 1012.8F
MICHIGAN CITY              76     230/  6/  7   N/A
MICHIGAN CITY 6N           74 71  230/  2/  4   N/A           1
ST. JOSEPH                 74 72  230/  4/  6   N/A           0
$$

ILZ025>027-034>036-040-047-049-050-058-095>099-221900-
WEST-CENTRAL ILLINOIS

CITY           SKY/WX    TMP DP  RH WIND       PRES   REMARKS
QUINCY         PTSUNNY   84  74  71 SE10      29.98F HX  91
GALESBURG*     CLOUDY    80  76  87 S9        29.98F HX  87
MACOMB*        CLOUDY    79  76  90 S7        30.01F HX  83
JACKSONVILLE*  CLOUDY    83  78  84 S3        30.01F HX  92
PITTSFIELD*    CLOUDY    86  75  68 SE7       30.00F HX  95
$$

ILZ028>032-037-038-041>044-048-051>054-059>061-221900-
CENTRAL ILLINOIS

CITY           SKY/WX    TMP DP  RH WIND       PRES   REMARKS
PONTIAC        CLOUDY    77  73  88 CALM      29.97S
DECATUR        CLOUDY    80  74  81 SW10      29.98F HX  85
PEORIA         CLOUDY    78  73  84 SW7       29.99S HX  81
6HR MIN TEMP:  74; 6HR MAX TEMP:  78; 6HR PCP:  0.27;

LACON*         LGT RAIN  73  71  93 SW8       29.94F
LINCOLN*       LGT RAIN  79  74  86 CALM      29.96F HX  82
SPRINGFIELD    CLOUDY    82  74  76 S5        30.01R HX  88
6HR MIN TEMP:  77; 6HR MAX TEMP:  82;

TAYLORVILLE    CLOUDY    81  73  78 SE7       30.00F HX  85
$$

ILZ033-039-045-046-055>057-062-063-221900-
EAST-CENTRAL ILLINOIS

CITY           SKY/WX    TMP DP  RH WIND       PRES   REMARKS
CHAMPAIGN      CLOUDY    79  74  84 NE8       29.97F HX  82
DANVILLE*      HVY RAIN  76  73  90 SW3       29.97R
RANTOUL*       CLOUDY    82  70  68 CALM      29.98F HX  85
MATTOON        CLOUDY    80  74  81 S10       29.98F HX  85
PARIS*         CLOUDY    81  74  80 CALM      29.99F HX  86
$$

ILZ079-100>102-221900-
SOUTHWEST ILLINOIS

CITY           SKY/WX    TMP DP  RH WIND       PRES   REMARKS
ALTON          PTSUNNY   88  79  74 VRB3      30.01  HX 102
BELLEVILLE     CLOUDY    88  77  69 VRB5      30.00F HX 100
CAHOKIA*       PTSUNNY   90  72  55 SW5       30.00F HX  97
SPARTA*        CLOUDY    86  75  69 S3        30.04F HX  95
$$

ILZ064>066-069>071-074>076-080>082-084>086-088>090-092>094-221900-
SOUTH-CENTRAL ILLINOIS

CITY           SKY/WX    TMP DP  RH WIND       PRES   REMARKS
CARBONDALE     PTSUNNY   88  75  65 W5        30.03F HX  97
6HR MIN TEMP:  75; 6HR MAX TEMP:  88;

CAIRO*         PTSUNNY   91  77  63 S8        30.03F HX 105
MARION         PTSUNNY   90  77  66 W6        30.04F HX 102
MT. VERNON     CLOUDY    88  73  62 SW5       30.03S HX  96
CENTRALIA*     CLOUDY    95  74  49 SW5       30.03S HX 105
SALEM*         CLOUDY    86  76  71 CALM      30.02F HX  96
METROPOLIS*    PTSUNNY   90  73  57 SW7       30.03F HX  97
$$

ILZ067-068-072-073-078-083-087-091-221900-
SOUTHEAST ILLINOIS

CITY           SKY/WX    TMP DP  RH WIND       PRES   REMARKS
LAWRENCEVILLE  CLOUDY    86  76  71 SW9       30.00F HX  96
FLORA*         CLOUDY    84  73  71 W5        30.02F HX  90
FAIRFIELD*     PTSUNNY   86  79  79 W3        30.02F HX  99
HARRISBURG*    MOSUNNY   89  75  63 W6        30.04F HX  98
ROBINSON*      CLOUDY    85  78  78 SW7       30.01F HX  97
CARMI*         PTSUNNY   90  79  70 W5        30.01F HX 105
$$

ABBREVIATIONS USED IN REMARKS
   TC - TEMPERATURE IN CELSIUS
  WCI - WIND CHILL INDEX
   HX - HEAT INDEX
  VSB - VISIBILITY
$$




USA.gov is the U.S. government's official web portal to all federal, state and local government web resources and services.